WGS F2 (USA 204)

Last updated on Sun Jul 06 2025 00:02:43 GMT+0000 (Coordinated Universal Time)

1 34713U 09017A 25186.50479669 .00000084 00000+0 00000+0 0 9993 2 34713 0.0150 20.2661 0000559 139.9903 2.7208 1.00272002 42140
UTC large
Height (km)
Speed (km/s)
/
Latitude / Longitude
Inclination (degrees)
Orbital Period (minutes)
Azimuth
Elevation
Range (km)
Doppler Factor

Next 0 passes for location: London (51.5072 / 0.1276)

Sorry there are no passes over London.